METEOR 2-11 DEB

Satellite information

Favourite Embed

Satellite Type and Status

DEBRISIN ORBIT

Key statistics

Satellite METEOR 2-11 DEB at a glance.

Uptime

15081

Days in orbit

Revolutions

≈ 14.0

Per day

Orbit

LEO

Low Earth Orbit

Inclination

82.5

Latest

Satellite identification and parameters

Extended collection of information and parameters for METEOR 2-11 DEB.

Object identification

Identified? True

Debris? True

Object name: METEOR 2-11 DEB

International designator: 1984-072AA

Object number (NORAD): 60005

Object ID (CCSDS): 60005

Country: COMMONWEALTH OF INDEPENDENT STATES (CIS)

Current information (Y/N): Y

RCS size: SMALL

Orbital parameters

Period: 102.886 minutes

Inclination: 82.5217 deg

SMA: 7273.287 km

Apoapsis: 913.95 km

Periapsis: 876.353 km

RAAN: 203.074 deg

Eccentricy: 0.00258457

Argument of periapsis: 319.6265 deg

Mean anomaly: 40.2985 deg

Mean motion: 13.99608948 rev/day

Mean motion (dot): 0.00003347 rev/day2

B* drag term: 0.0022760161 1/REarth

Two-line elements (TLE)

Creation date: Oct. 14, 2025, 5:26 p.m.

Reference frame: TEME

Reference center: EARTH

Epoch: Oct. 14, 2025, 1:16 a.m. UTC

TLE line 0: 0 METEOR 2-11 DEB

TLE line 1: 1 60005U 84072AA 25287.05319851 .00003347 00000-0 22760-2 0 9994

TLE line 2: 2 60005 82.5217 203.0740 0025846 319.6265 40.2985 13.99608948402473

Live tracking on map

Real-time ground track for satellite METEOR 2-11 DEB.

In-orbit conjunctions

A list of the most updated potential collisions computed for object METEOR 2-11 DEB.

Target Orbit TCA Probability of collision Miss distance Type
SL-8 R/B LEO 2025-09-06 10:17:00 0.0001161283 789.0 (m) ROCKET BODY
COSMOS 1275 DEB LEO 2025-06-07 17:55:09 0.0001086088 199.0 (m) DEBRIS
DMSP 5D-2 F13 DEB SSO 2025-02-01 05:23:41 0.0001276899 215.0 (m) DEBRIS
SL-16 DEB LEO 2024-12-01 15:13:22 0.000174815 329.0 (m) DEBRIS
YAOGAN 7 DEB SSO 2024-12-01 10:51:36 0.000104366 551.0 (m) DEBRIS

Associated space launch

Second generation soviet meteorological satellite

METEOR 2-11 DEB was lifted into orbit during the mission ‘Tsiklon-3 | Meteor-2 11’, on board a Tsiklon-3 space rocket.

The launch took place on July 5, 1984, 3:35 a.m. from 32/2.

For more information about the launch, click the button.

Launch to space Tsiklon-3 | Meteor-2 11
Tsiklon-3 | Meteor-2 11

Agency: N/A

Status: Launch Successful

Launch date: July 5, 1984, 3:35 a.m. UTC

Rocket: Tsiklon-3

Launch pad: 32/2

Location: Plesetsk Cosmodrome, Russian Federation

...

Latest news about this satellite

There are no fresh news available about this satellite. Check back as we update our databases every day.


Newsletter sign-up

Weekly statistics, charts and insights to help you stay on top of the space industry.